Vorticity
nan nan nan nan nan nan nan nan nan nan nan nan nan nan nan nan nan nan nan nan nan nan nan nan nan nan nan nan nan nan nan nan nan nan nan nan nan nan nan nan nan nan nan
nan 10 9 7 5 4 5 7 7 5 5 4 5 5 4 5 4 3 4 4 4 6 5 5 6 6 4 5 6 4 5 4 5 5 1 2 6 4 3 8 15 10 nan
nan 17 9 6 5 5 5 7 9 7 5 5 5 6 4 5 4 4 5 4 4 5 6 7 8 4 4 4 5 5 5 4 3 2 2 4 7 6 7 6 5 6 nan
nan 17 9 8 4 5 5 7 8 7 5 5 6 5 5 5 4 4 5 5 5 6 8 7 6 6 5 4 4 5 4 3 3 6 10 4 2 4 6 5 5 6 nan
nan 15 16 8 4 5 5 5 6 6 5 5 6 5 6 5 5 4 5 6 5 6 9 8 5 5 4 4 4 3 4 3 2 9 8 7 7 3 4 6 6 3 nan
nan 14 16 8 6 5 5 5 5 5 4 5 6 6 7 6 6 5 7 8 6 7 6 4 4 4 5 4 4 4 3 2 5 10 6 5 8 7 4 5 6 6 nan
nan 11 11 12 6 5 5 6 5 5 6 6 6 6 5 6 6 6 7 7 8 7 5 4 4 3 4 4 4 5 3 2 8 8 5 8 5 6 5 5 5 5 nan
nan 9 17 13 7 6 6 5 6 6 6 6 5 5 5 6 6 8 9 7 5 5 5 5 3 4 5 7 6 5 5 5 7 6 4 7 6 6 5 5 5 5 nan
nan 9 14 13 9 6 7 6 6 6 5 6 6 6 6 6 8 9 5 6 5 4 5 5 5 5 6 8 8 5 4 3 5 10 6 7 6 5 5 5 5 5 nan
nan 6 9 14 12 10 8 7 7 7 7 7 6 6 6 6 9 9 5 7 6 5 5 5 6 5 6 7 6 5 4 6 11 6 6 10 8 5 4 4 4 5 nan
nan 3 5 8 11 12 10 8 6 6 7 6 5 6 6 7 8 6 8 9 6 6 6 6 5 6 5 6 6 6 4 7 10 5 10 8 5 5 5 5 4 4 nan
nan 5 4 5 8 8 11 12 8 7 8 7 5 5 5 6 8 10 11 7 6 6 6 6 5 4 4 3 5 4 5 7 6 6 12 8 4 5 5 4 4 4 nan
nan 6 5 5 5 9 9 7 9 10 10 10 10 8 6 6 9 8 9 8 7 6 5 7 6 5 4 4 6 5 5 6 7 7 10 8 4 5 5 5 5 4 nan
nan 7 7 7 7 7 8 9 7 7 8 7 11 7 5 7 7 8 9 8 7 7 6 6 6 8 6 6 4 6 6 6 5 8 9 9 5 5 5 5 5 5 nan
nan 8 9 8 7 7 7 7 9 7 6 7 8 8 5 5 7 8 8 8 7 6 7 7 7 8 9 7 6 6 6 6 4 4 9 10 6 6 6 5 6 6 nan
nan 7 9 10 8 6 7 7 7 9 8 8 8 11 7 5 6 8 6 8 8 8 7 7 9 6 9 8 8 7 7 5 7 5 7 10 11 7 6 6 5 6 nan
nan 6 8 10 10 8 7 8 7 8 9 9 9 9 8 8 7 7 8 8 7 10 8 6 10 8 8 8 8 7 8 8 7 7 6 7 11 10 9 7 6 6 nan
nan 7 7 8 9 9 7 8 8 7 8 9 9 10 8 6 7 8 10 7 7 7 9 8 8 7 9 9 8 8 7 9 8 8 6 7 6 10 13 12 8 8 nan
nan 10 9 9 8 9 9 8 9 6 8 9 9 10 10 6 5 6 9 10 8 8 8 9 8 8 5 6 9 8 8 9 10 9 7 8 6 6 11 15 12 10 nan
nan 12 9 10 9 9 9 9 9 9 8 7 10 11 8 8 7 5 7 7 8 10 8 8 8 7 8 6 8 8 7 7 7 8 10 9 9 8 6 7 9 14 nan
nan 12 11 8 9 8 9 10 9 8 7 7 10 11 9 8 9 5 6 9 8 8 9 7 8 7 6 8 8 8 6 8 8 8 8 8 8 9 7 7 6 7 nan
nan 13 12 10 9 6 5 9 9 10 8 8 8 10 12 11 8 8 6 7 8 9 10 8 6 7 9 8 5 8 11 12 10 9 7 10 7 8 10 9 8 6 nan
nan 15 13 12 11 10 6 5 8 9 8 10 9 11 11 11 11 9 7 7 8 9 8 9 11 7 5 9 7 4 6 5 13 16 11 8 10 8 10 11 9 9 nan
nan 14 14 12 11 10 10 8 8 5 7 7 10 9 10 11 11 10 9 8 7 8 7 8 8 8 7 6 10 8 0 4 7 9 12 9 12 12 9 10 11 8 nan
nan 10 13 13 11 10 10 8 8 6 6 8 10 9 7 10 11 11 10 7 6 7 9 8 7 7 7 7 6 8 11 10 5 6 7 8 7 10 11 9 11 12 nan
nan nan nan nan nan nan nan nan nan nan nan nan nan nan nan nan nan nan nan nan nan nan nan nan nan nan nan nan nan nan nan nan nan nan nan nan nan nan nan nan nan nan nan
CAPE
1151 1461 2285 2548 2129 2191 2258 2343 2186 2199 2226 1757 1061 1055 1064 660 97 142 71 144 40 13 11 104 219 500 297 410 501 518 440 350 467 450 647 376 23 50 71 16 351 33 141
729 1264 2102 2496 2470 2336 2391 2603 2236 2087 2136 2040 1840 1380 1310 540 156 739 461 209 113 104 50 230 508 161 346 326 413 234 204 312 287 510 491 187 153 0 12 459 436 87 338
1001 1152 1420 2461 2414 2436 2373 2451 2324 2062 2240 2007 1869 1751 1035 519 238 686 1091 384 651 53 76 414 325 332 256 161 86 12 164 225 176 177 208 306 357 400 339 415 540 414 337
1083 1491 1359 2192 2454 2438 2454 2316 2457 2387 2307 2166 1850 1790 1156 670 376 594 1177 837 845 572 677 831 549 97 113 43 61 70 118 111 19 7 121 56 91 183 182 134 90 58 47
1195 1494 1620 2024 2076 2387 2440 2396 2339 2397 2112 1878 1952 1584 1230 875 395 432 1039 891 1120 993 1018 697 209 45 46 60 89 59 61 16 0 8 23 51 12 7 1 1 0 0 0
928 1319 1763 1996 1916 2028 2425 2389 2347 2248 2168 1743 1842 1681 1590 797 351 658 1239 789 1025 1009 672 181 92 0 10 63 41 24 0 0 0 3 0 0 4 0 0 0 0 0 0
407 1035 1322 1595 1845 1874 2029 1998 2144 1985 2066 1557 1894 1454 1081 969 1121 1476 1140 987 1051 756 555 125 47 7 0 0 0 0 0 0 0 0 0 1 0 0 0 0 0 0 0
0 576 1228 1383 1462 1565 1698 1679 1620 2064 2054 1837 1862 1762 1504 1653 1651 1317 1315 1042 739 653 271 65 52 12 0 0 0 0 0 0 0 0 0 3 0 0 0 0 0 0 0
0 0 1015 1409 1168 1054 1344 1392 1510 1565 1657 1771 1605 1540 1477 1383 1318 1513 1381 960 667 602 419 319 59 74 28 9 3 0 0 0 0 0 0 0 0 0 0 0 0 0 0
0 0 0 748 1115 1170 1103 1018 1081 1204 1224 1203 1281 1033 1005 799 877 915 781 638 613 611 441 368 296 92 68 121 5 0 0 0 0 0 0 0 0 0 0 0 0 0 0
0 0 0 0 548 834 964 1065 928 906 989 948 914 898 686 802 598 513 438 328 418 451 303 366 440 228 75 173 35 0 0 0 0 0 0 0 0 0 0 0 0 0 0
0 0 0 0 0 382 927 717 1021 1077 1056 727 701 709 681 724 612 396 334 131 295 236 127 383 494 208 0 0 0 0 0 0 0 0 0 0 0 1 1 0 0 0 0
0 0 0 0 0 0 612 1113 857 935 868 843 674 616 685 499 316 845 1076 358 192 0 0 33 78 1 0 0 0 0 0 0 0 0 0 0 0 57 5 0 0 0 0
0 0 0 0 0 0 0 914 961 658 652 497 517 328 475 334 303 383 787 1011 802 177 18 0 0 0 0 0 0 0 0 0 0 0 0 0 0 0 41 6 0 0 0
0 0 0 0 0 0 0 25 974 939 291 245 443 427 508 489 309 315 671 752 677 557 108 11 0 0 0 0 0 0 0 0 0 0 0 0 0 0 0 93 130 121 116
0 0 0 0 0 0 0 0 174 842 857 374 297 554 490 506 411 362 288 568 660 541 213 10 1 0 0 0 0 0 0 0 0 0 0 0 0 0 0 0 115 394 334
0 0 0 0 0 0 0 0 0 270 886 1060 612 555 368 309 332 237 182 123 458 528 240 110 5 1 0 0 0 0 0 0 0 0 0 0 0 0 0 0 3 80 199
0 0 0 0 0 0 0 0 0 98 344 888 1006 849 577 193 338 610 667 536 375 294 503 318 151 2 0 0 0 0 0 0 0 0 0 0 0 0 0 0 33 73 264
0 0 0 0 0 0 0 0 0 0 236 322 799 854 816 631 572 517 629 636 616 352 369 425 204 71 18 0 0 0 0 0 0 0 0 0 0 0 0 2 0 7 44
0 0 0 0 0 0 0 0 0 0 204 279 358 802 781 644 448 379 603 604 528 748 555 597 416 249 95 96 11 3 0 0 0 0 0 1 0 0 7 23 47 3 0
0 0 0 0 0 0 0 0 0 0 19 205 310 625 722 540 322 568 325 362 456 618 306 446 351 248 197 139 118 80 0 0 0 0 0 0 0 0 2 11 54 64 41
1 0 0 0 0 0 0 0 0 0 11 70 339 345 496 564 548 440 520 539 313 312 316 259 248 201 188 176 77 47 23 3 0 0 0 0 0 0 0 8 38 52 80
13 5 0 0 0 0 0 0 0 26 79 41 178 240 401 486 658 643 559 548 440 271 256 287 268 231 172 143 128 100 15 1 0 0 0 0 0 0 1 17 34 60 62
6 48 7 0 0 0 0 0 0 3 46 68 152 276 337 424 541 650 499 557 408 355 343 312 312 298 319 373 270 80 38 34 53 1 0 0 0 3 11 26 56 77 67
10 6 51 8 0 0 0 0 0 9 24 64 216 214 247 444 388 470 614 558 634 448 484 468 404 236 370 353 297 136 17 30 54 88 23 29 7 18 97 94 102 80 55
17 8 25 56 6 0 0 0 0 11 41 67 145 257 343 390 261 348 437 562 571 439 251 256 335 352 257 212 261 217 103 24 44 83 87 45 41 85 86 95 69 66 68